Temp
-3 -4 -4 -4 -4 -4 -5 -5 -5 -5 -5 -6 -6 -7 -7 -7 -8 -8 -8 -8 -8 -8 -8 -8 -8 -8 -8 -8 -8 -8 -8 -8 -8 -7 -7 -7 -7 -7 -7 -7 -7 -7 -7 -7 -7 -7 -7 -7 -6
-3 -4 -4 -4 -4 -5 -5 -5 -5 -5 -5 -6 -6 -7 -6 -7 -7 -7 -7 -8 -7 -8 -8 -8 -8 -8 -8 -8 -8 -8 -8 -8 -8 -7 -7 -7 -7 -7 -8 -7 -8 -8 -7 -7 -7 -7 -7 -6 -7
-4 -4 -4 -3 -4 -5 -5 -4 -5 -5 -5 -5 -6 -6 -6 -6 -7 -7 -7 -7 -7 -7 -7 -8 -8 -8 -8 -8 -8 -7 -7 -7 -7 -7 -7 -7 -7 -7 -7 -7 -7 -8 -7 -7 -7 -7 -7 -7 -7
-4 -4 -4 -4 -4 -5 -4 -4 -5 -5 -5 -5 -6 -6 -6 -6 -6 -6 -7 -7 -7 -8 -7 -8 -7 -7 -8 -7 -7 -7 -7 -7 -7 -6 -7 -7 -7 -7 -7 -7 -7 -7 -7 -7 -7 -7 -7 -7 -7
-4 -4 -4 -4 -4 -4 -4 -4 -5 -4 -5 -5 -5 -5 -5 -6 -6 -6 -6 -7 -7 -7 -7 -7 -7 -7 -7 -7 -7 -6 -6 -6 -6 -6 -6 -7 -7 -7 -7 -7 -7 -6 -6 -7 -7 -7 -7 -7 -7
-4 -4 -4 -5 -4 -5 -4 -4 -4 -4 -4 -5 -5 -5 -5 -6 -6 -6 -6 -7 -7 -7 -7 -7 -7 -7 -6 -6 -6 -6 -6 -6 -6 -6 -6 -6 -6 -7 -7 -7 -6 -6 -6 -6 -6 -7 -7 -7 -7
-4 -4 -4 -4 -4 -4 -4 -4 -4 -4 -4 -4 -5 -5 -5 -5 -5 -6 -6 -7 -7 -7 -7 -6 -6 -6 -6 -6 -6 -6 -6 -6 -6 -6 -6 -6 -6 -6 -6 -6 -7 -7 -6 -6 -6 -7 -6 -6 -6
-4 -4 -4 -4 -5 -4 -4 -4 -4 -4 -5 -4 -4 -5 -5 -5 -5 -6 -6 -6 -7 -7 -7 -6 -6 -6 -6 -6 -6 -6 -6 -5 -6 -6 -6 -6 -6 -6 -6 -7 -7 -7 -7 -7 -6 -6 -6 -6 -6
-4 -4 -4 -4 -4 -4 -4 -4 -4 -4 -4 -4 -4 -4 -4 -4 -5 -5 -6 -6 -7 -7 -7 -6 -6 -6 -6 -6 -6 -6 -6 -6 -6 -6 -6 -6 -6 -6 -6 -6 -7 -7 -7 -7 -6 -6 -6 -6 -6
-4 -3 -4 -4 -4 -4 -4 -4 -4 -4 -4 -4 -4 -4 -4 -4 -5 -5 -5 -6 -6 -7 -7 -7 -7 -6 -6 -6 -6 -6 -6 -6 -6 -6 -6 -6 -6 -6 -6 -6 -6 -6 -6 -6 -6 -6 -6 -6 -5
-4 -4 -4 -4 -4 -4 -4 -4 -4 -4 -4 -4 -4 -4 -4 -4 -4 -5 -5 -6 -6 -6 -7 -7 -7 -6 -6 -6 -6 -6 -6 -6 -6 -7 -6 -6 -6 -6 -6 -6 -6 -6 -6 -6 -5 -5 -5 -5 -5
-4 -4 -3 -4 -4 -4 -4 -4 -4 -3 -4 -4 -4 -4 -4 -4 -4 -4 -5 -5 -5 -6 -6 -6 -6 -6 -6 -6 -7 -6 -6 -7 -7 -7 -6 -6 -6 -6 -6 -6 -6 -6 -6 -5 -6 -5 -5 -6 -6
-4 -4 -4 -4 -4 -3 -4 -4 -4 -4 -4 -4 -4 -3 -5 -4 -4 -4 -5 -5 -5 -5 -5 -6 -6 -6 -5 -5 -6 -6 -6 -6 -7 -7 -7 -6 -6 -6 -6 -6 -6 -6 -5 -5 -6 -6 -6 -6 -6
-4 -4 -4 -4 -3 -3 -3 -3 -4 -4 -4 -4 -4 -3 -4 -4 -4 -4 -4 -5 -5 -5 -5 -5 -5 -5 -5 -5 -5 -5 -6 -6 -6 -6 -6 -6 -6 -6 -6 -6 -6 -5 -5 -6 -6 -6 -6 -6 -6
-5 -4 -4 -4 -4 -4 -4 -4 -3 -4 -5 -5 -4 -4 -4 -5 -4 -4 -4 -4 -5 -5 -5 -5 -5 -5 -5 -6 -5 -6 -6 -6 -6 -6 -6 -5 -6 -6 -6 -6 -6 -6 -6 -6 -6 -6 -6 -6 -6
-5 -5 -4 -4 -5 -4 -4 -4 -3 -4 -4 -5 -4 -5 -4 -4 -5 -4 -4 -4 -5 -5 -5 -5 -5 -5 -5 -5 -5 -5 -6 -6 -6 -5 -5 -5 -5 -6 -6 -6 -5 -5 -5 -5 -6 -6 -6 -6 -6
-6 -6 -4 -5 -6 -4 -4 -4 -4 -4 -4 -4 -5 -4 -4 -4 -5 -5 -4 -4 -4 -5 -5 -5 -5 -5 -5 -5 -6 -5 -6 -6 -6 -6 -6 -6 -6 -5 -5 -5 -5 -5 -5 -5 -6 -6 -6 -6 -6
-7 -7 -5 -6 -5 -5 -5 -5 -4 -4 -4 -4 -4 -4 -5 -4 -4 -5 -5 -5 -5 -5 -5 -5 -5 -5 -5 -5 -5 -5 -6 -6 -6 -6 -6 -6 -6 -6 -6 -6 -6 -6 -6 -6 -6 -6 -6 -6 -7
-6 -7 -7 -7 -5 -5 -5 -5 -4 -4 -3 -4 -4 -4 -5 -5 -4 -5 -5 -5 -5 -5 -5 -5 -5 -5 -5 -5 -5 -5 -5 -5 -6 -6 -6 -6 -6 -6 -6 -6 -6 -6 -6 -6 -6 -5 -6 -6 -6
-7 -8 -7 -7 -6 -6 -7 -6 -5 -4 -4 -4 -4 -4 -4 -4 -4 -4 -5 -5 -5 -5 -5 -5 -5 -5 -5 -5 -5 -5 -5 -5 -6 -6 -6 -6 -6 -6 -6 -6 -6 -6 -6 -6 -6 -5 -5 -6 -6
-8 -8 -7 -7 -7 -6 -6 -6 -6 -5 -5 -4 -4 -4 -4 -4 -4 -4 -5 -5 -5 -5 -5 -5 -5 -5 -5 -5 -5 -5 -5 -6 -6 -6 -6 -6 -6 -7 -7 -6 -6 -6 -6 -5 -5 -5 -5 -6 -6
-9 -8 -8 -7 -8 -8 -7 -7 -6 -5 -5 -5 -4 -4 -4 -4 -4 -4 -4 -4 -5 -5 -5 -5 -5 -5 -5 -5 -5 -6 -6 -5 -5 -6 -6 -6 -6 -6 -6 -6 -6 -6 -6 -5 -5 -5 -5 -6 -6
-9 -8 -8 -8 -8 -8 -7 -7 -6 -6 -5 -5 -4 -4 -4 -5 -5 -5 -5 -5 -5 -5 -5 -5 -5 -5 -5 -5 -5 -5 -5 -5 -5 -5 -6 -6 -6 -6 -6 -6 -6 -5 -5 -5 -5 -5 -5 -6 -6
-8 -9 -8 -8 -8 -8 -7 -7 -6 -7 -5 -5 -5 -4 -3 -4 -4 -5 -5 -5 -5 -4 -5 -5 -5 -5 -5 -6 -5 -5 -5 -6 -5 -5 -4 -5 -5 -5 -5 -5 -5 -5 -5 -5 -5 -5 -6 -6 -6
-8 -10 -9 -9 -8 -8 -7 -7 -6 -6 -6 -7 -4 -4 -4 -4 -4 -5 -5 -5 -6 -5 -5 -5 -5 -5 -5 -5 -5 -5 -5 -5 -5 -5 -4 -4 -4 -4 -4 -4 -4 -4 -4 -4 -5 -5 -5 -6 -6
-9 -10 -9 -8 -7 -7 -7 -7 -7 -7 -8 -7 -6 -5 -5 -5 -4 -5 -6 -6 -6 -6 -6 -6 -6 -5 -5 -5 -5 -5 -5 -5 -5 -5 -4 -4 -4 -4 -4 -4 -4 -4 -4 -4 -4 -5 -5 -6 -6
-10 -9 -8 -8 -7 -7 -6 -7 -7 -7 -7 -8 -6 -6 -5 -6 -6 -6 -5 -6 -6 -7 -7 -7 -6 -6 -5 -5 -5 -5 -5 -5 -5 -6 -5 -4 -4 -3 -4 -4 -4 -4 -4 -4 -4 -4 -5 -5 -6
-10 -9 -10 -9 -8 -7 -6 -7 -7 -7 -7 -7 -8 -6 -6 -6 -6 -6 -5 -5 -6 -6 -6 -7 -7 -7 -5 -6 -5 -5 -5 -5 -5 -5 -5 -5 -4 -4 -4 -4 -4 -4 -4 -4 -4 -5 -5 -5 -6
-10 -11 -10 -9 -9 -8 -7 -7 -7 -8 -8 -8 -8 -7 -7 -7 -6 -6 -5 -5 -5 -5 -6 -6 -6 -6 -5 -5 -5 -5 -5 -5 -5 -5 -5 -5 -5 -4 -4 -4 -4 -4 -4 -4 -4 -4 -5 -5 -6
-12 -11 -11 -10 -10 -9 -8 -7 -7 -8 -8 -8 -8 -7 -7 -7 -6 -6 -6 -5 -5 -5 -5 -6 -6 -6 -6 -6 -5 -5 -5 -5 -5 -5 -5 -5 -5 -5 -4 -4 -4 -4 -4 -4 -4 -4 -4 -5 -5
Height
5896 5897 5898 5898 5902 5898 5899 5899 5896 5895 5894 5891 5890 5889 5888 5885 5884 5885 5882 5881 5881 5881 5881 5881 5881 5882 5882 5882 5883 5885 5886 5888 5889 5889 5891 5892 5893 5895 5896 5897 5898 5901 5902 5904 5906 5908 5910 5912 5915
5898 5900 5901 5901 5903 5902 5902 5901 5899 5898 5895 5894 5892 5889 5887 5888 5886 5885 5885 5883 5883 5883 5884 5883 5884 5883 5884 5885 5885 5886 5888 5890 5891 5892 5893 5895 5896 5897 5898 5900 5903 5905 5907 5909 5911 5913 5915 5917 5917
5901 5903 5905 5905 5906 5906 5905 5904 5902 5900 5898 5895 5894 5891 5890 5889 5889 5888 5887 5887 5886 5885 5885 5886 5886 5885 5886 5887 5888 5889 5890 5892 5893 5894 5896 5897 5899 5901 5902 5904 5906 5908 5910 5913 5915 5917 5919 5920 5920
5903 5905 5907 5907 5909 5909 5907 5905 5904 5903 5901 5898 5896 5895 5893 5891 5890 5891 5890 5889 5888 5888 5887 5888 5889 5889 5889 5889 5890 5891 5893 5894 5897 5898 5900 5901 5902 5905 5906 5908 5909 5911 5914 5916 5918 5920 5921 5922 5923
5905 5907 5909 5910 5911 5910 5909 5908 5907 5906 5903 5902 5899 5898 5895 5893 5893 5893 5893 5892 5891 5891 5891 5890 5892 5892 5893 5893 5893 5895 5896 5897 5899 5901 5902 5903 5905 5908 5909 5911 5913 5915 5917 5919 5921 5922 5924 5926 5927
5908 5910 5911 5911 5912 5911 5911 5910 5909 5907 5906 5905 5902 5901 5899 5895 5896 5896 5896 5895 5895 5895 5894 5894 5894 5895 5895 5895 5896 5897 5898 5900 5901 5903 5905 5906 5908 5911 5913 5915 5917 5918 5920 5922 5924 5926 5927 5929 5931
5909 5911 5912 5914 5914 5914 5914 5913 5911 5910 5908 5907 5906 5904 5903 5899 5899 5900 5899 5898 5898 5898 5898 5897 5897 5897 5897 5897 5898 5900 5900 5902 5904 5906 5908 5910 5911 5914 5916 5918 5919 5920 5923 5925 5928 5929 5931 5933 5935
5912 5912 5914 5915 5915 5916 5916 5915 5914 5913 5911 5910 5908 5907 5907 5903 5902 5903 5902 5902 5901 5901 5900 5900 5899 5900 5900 5900 5901 5901 5903 5905 5907 5909 5911 5914 5915 5918 5920 5921 5923 5924 5927 5929 5932 5934 5936 5938 5940
5913 5913 5915 5916 5916 5917 5917 5916 5915 5914 5913 5912 5910 5910 5910 5907 5905 5907 5907 5905 5905 5904 5904 5903 5902 5903 5904 5903 5903 5905 5906 5908 5910 5913 5916 5918 5920 5921 5923 5925 5927 5930 5932 5934 5936 5938 5941 5943 5944
5913 5913 5916 5917 5917 5918 5918 5918 5917 5917 5916 5914 5913 5913 5913 5911 5910 5911 5911 5909 5909 5910 5909 5908 5907 5906 5906 5906 5906 5908 5909 5910 5913 5916 5920 5922 5924 5924 5927 5929 5933 5936 5938 5939 5941 5943 5945 5946 5947
5914 5915 5916 5917 5918 5919 5919 5919 5919 5918 5918 5916 5916 5916 5916 5916 5914 5915 5914 5914 5913 5914 5913 5913 5912 5911 5910 5910 5911 5912 5913 5915 5917 5919 5922 5926 5928 5930 5932 5935 5938 5941 5943 5945 5947 5948 5949 5950 5950
5914 5915 5916 5917 5918 5918 5919 5919 5919 5919 5919 5919 5918 5917 5918 5919 5919 5918 5919 5918 5918 5918 5918 5917 5917 5917 5916 5914 5917 5917 5918 5920 5922 5925 5927 5929 5932 5935 5938 5940 5943 5945 5947 5949 5951 5952 5953 5954 5954
5913 5914 5914 5917 5917 5918 5918 5919 5919 5919 5919 5920 5920 5919 5919 5921 5921 5921 5922 5923 5922 5922 5923 5924 5923 5922 5922 5922 5922 5922 5923 5924 5926 5929 5932 5933 5936 5940 5943 5944 5947 5949 5951 5953 5954 5955 5955 5956 5956
5912 5914 5915 5917 5917 5918 5919 5919 5918 5919 5919 5919 5920 5920 5920 5922 5923 5924 5924 5926 5926 5926 5927 5928 5928 5928 5928 5928 5928 5928 5929 5930 5930 5933 5936 5939 5942 5944 5946 5948 5950 5952 5954 5955 5956 5957 5958 5958 5958
5911 5915 5916 5918 5918 5918 5918 5918 5917 5918 5917 5918 5919 5920 5921 5922 5925 5926 5926 5927 5928 5930 5930 5931 5932 5932 5933 5933 5934 5934 5935 5936 5937 5938 5940 5943 5946 5948 5950 5952 5953 5955 5956 5957 5959 5960 5961 5961 5962
5912 5915 5916 5915 5917 5917 5917 5917 5917 5918 5918 5918 5919 5920 5921 5922 5925 5928 5929 5930 5930 5932 5933 5934 5935 5936 5937 5938 5938 5940 5940 5941 5942 5943 5945 5947 5949 5951 5953 5954 5956 5957 5958 5960 5961 5962 5963 5964 5964
5911 5916 5915 5901 5913 5916 5916 5916 5918 5918 5918 5918 5919 5920 5921 5923 5925 5927 5930 5931 5932 5933 5935 5936 5937 5938 5940 5941 5942 5943 5944 5946 5947 5948 5949 5950 5952 5954 5956 5957 5959 5960 5961 5962 5964 5964 5965 5966 5967
5911 5915 5914 5914 5913 5914 5915 5914 5915 5916 5917 5917 5918 5919 5922 5922 5923 5927 5929 5932 5933 5935 5936 5937 5939 5940 5941 5944 5945 5946 5947 5949 5950 5951 5953 5954 5955 5957 5959 5960 5961 5962 5963 5964 5965 5966 5968 5969 5970
5907 5912 5917 5910 5907 5910 5911 5913 5912 5914 5914 5915 5917 5918 5920 5922 5922 5925 5928 5931 5934 5935 5937 5938 5939 5940 5942 5945 5947 5948 5949 5950 5952 5954 5955 5956 5958 5959 5960 5961 5962 5963 5964 5966 5967 5967 5969 5971 5971
5901 5907 5913 5906 5904 5908 5913 5910 5910 5911 5911 5913 5915 5916 5918 5921 5922 5924 5927 5930 5933 5934 5937 5939 5941 5943 5944 5946 5948 5950 5951 5952 5953 5955 5956 5957 5959 5960 5961 5962 5963 5964 5965 5967 5969 5970 5971 5973 5974
5897 5904 5910 5910 5901 5905 5908 5910 5910 5909 5910 5910 5912 5914 5916 5919 5921 5924 5926 5929 5932 5934 5936 5939 5941 5944 5945 5947 5948 5949 5951 5952 5954 5955 5956 5957 5958 5960 5960 5961 5963 5964 5965 5967 5969 5972 5973 5975 5974
5895 5900 5903 5901 5902 5908 5906 5911 5907 5906 5907 5909 5909 5911 5913 5916 5919 5922 5924 5927 5930 5933 5936 5938 5941 5943 5945 5946 5948 5949 5951 5952 5954 5955 5956 5957 5958 5959 5960 5961 5962 5964 5966 5968 5969 5972 5974 5975 5976
5888 5895 5899 5901 5901 5905 5905 5908 5910 5903 5903 5904 5907 5907 5909 5912 5915 5919 5922 5924 5926 5930 5933 5937 5940 5942 5944 5946 5948 5949 5950 5952 5953 5954 5955 5956 5957 5958 5959 5960 5962 5963 5966 5969 5970 5973 5976 5977 5977
5880 5886 5891 5891 5898 5900 5905 5910 5914 5907 5902 5900 5902 5904 5906 5909 5912 5915 5918 5919 5922 5926 5930 5933 5937 5940 5942 5944 5947 5949 5950 5950 5952 5954 5954 5955 5957 5958 5960 5961 5962 5964 5966 5969 5971 5973 5975 5977 5978
5869 5878 5885 5889 5890 5893 5902 5905 5911 5901 5897 5899 5899 5901 5904 5906 5908 5911 5914 5918 5920 5923 5926 5930 5933 5936 5940 5942 5944 5947 5950 5949 5950 5952 5953 5955 5956 5958 5960 5962 5963 5965 5967 5969 5971 5972 5974 5976 5977
5861 5871 5878 5883 5888 5893 5896 5895 5899 5898 5896 5895 5895 5897 5900 5903 5905 5908 5911 5914 5917 5921 5924 5927 5929 5932 5935 5939 5941 5944 5947 5948 5949 5950 5952 5954 5955 5956 5958 5960 5962 5964 5966 5968 5970 5971 5973 5974 5975
5856 5856 5871 5881 5886 5890 5894 5894 5894 5889 5892 5893 5894 5893 5897 5899 5901 5903 5906 5910 5914 5917 5920 5923 5926 5928 5930 5933 5936 5940 5943 5946 5948 5948 5950 5953 5954 5955 5957 5959 5960 5961 5963 5965 5967 5969 5971 5972 5972
5842 5858 5861 5866 5874 5881 5888 5888 5890 5888 5889 5888 5890 5892 5894 5897 5899 5901 5902 5905 5908 5912 5915 5917 5920 5923 5925 5929 5932 5935 5938 5941 5943 5946 5948 5949 5952 5954 5956 5957 5959 5961 5962 5963 5964 5966 5967 5968 5969
5833 5841 5851 5862 5867 5874 5881 5885 5889 5883 5885 5884 5887 5889 5892 5894 5897 5899 5900 5901 5904 5907 5910 5913 5915 5919 5921 5925 5928 5931 5934 5937 5940 5942 5945 5947 5949 5950 5952 5955 5957 5958 5960 5961 5962 5962 5964 5964 5965
5827 5833 5842 5849 5856 5864 5873 5881 5884 5881 5879 5877 5883 5881 5888 5892 5893 5896 5897 5898 5899 5901 5904 5908 5911 5914 5916 5920 5923 5925 5928 5931 5935 5938 5939 5943 5945 5947 5948 5950 5953 5955 5957 5958 5958 5959 5960 5961 5962
Wind_Speed
19 18 17 17 15 13 12 9 10 11 12 13 13 14 13 11 13 11 11 12 12 8 8 8 8 13 16 19 20 19 19 19 17 17 17 17 16 16 20 21 18 22 23 21 23 24 24 21 19
20 18 17 16 14 10 11 9 11 11 13 13 13 13 15 14 14 14 13 15 13 10 9 10 11 14 15 18 18 20 19 17 16 16 16 16 15 16 20 20 20 20 21 21 21 21 21 20 16
20 19 18 13 13 4 9 9 10 12 13 12 12 13 15 15 15 15 15 15 12 11 13 13 15 18 18 18 18 18 19 18 16 15 16 17 16 19 20 21 21 21 20 21 21 21 20 18 16
19 18 17 14 16 4 10 10 10 11 12 13 11 12 15 15 16 15 14 15 15 14 17 16 17 19 18 17 17 17 17 17 17 16 15 16 17 21 22 22 23 23 23 22 24 23 20 17 18
19 16 16 10 8 6 9 9 7 9 10 11 10 11 15 16 16 15 15 15 15 14 14 16 15 15 15 16 15 15 15 16 17 17 18 19 19 21 22 22 24 24 25 26 26 24 21 20 18
15 14 12 12 8 6 7 6 6 9 9 11 11 12 15 17 16 16 15 15 14 12 12 12 13 13 14 13 14 16 14 14 15 18 20 20 21 21 22 22 21 22 25 27 26 24 23 22 18
13 13 13 10 6 5 5 5 6 9 9 10 11 11 14 17 17 17 16 16 15 12 12 13 14 14 16 17 17 16 16 16 19 19 21 21 21 21 20 21 21 21 26 26 26 25 24 21 19
12 12 9 11 10 5 5 5 5 7 9 10 11 12 12 16 19 17 19 19 18 15 16 15 16 16 17 18 19 17 16 17 18 20 21 21 22 23 24 22 23 27 30 28 27 24 21 21 20
13 6 9 12 9 5 5 4 6 6 8 8 11 11 12 16 19 19 20 22 20 18 18 18 19 18 17 18 18 18 20 20 21 22 23 24 27 26 24 25 25 27 27 27 26 24 23 22 20
14 13 15 10 9 6 4 2 3 5 6 8 9 9 12 14 18 19 19 22 22 20 20 20 20 21 20 20 23 24 24 24 28 25 26 26 26 24 26 27 28 27 27 27 26 24 22 19 16
16 16 12 10 9 2 4 2 0 2 2 6 8 7 12 13 17 17 18 19 22 21 21 21 21 21 23 22 25 24 23 22 22 28 28 26 24 26 28 29 29 28 27 26 23 21 17 16 14
14 8 8 9 9 5 3 4 3 0 0 3 3 8 10 11 14 16 15 18 20 22 23 25 24 25 26 26 29 26 23 23 23 27 28 26 28 30 29 29 29 28 26 23 20 17 15 14 14
11 18 15 4 7 4 5 3 6 4 5 2 2 7 8 11 12 14 15 17 18 21 23 24 26 27 28 30 32 30 30 31 27 26 26 29 30 29 28 29 29 26 22 19 16 15 15 14 12
15 9 15 6 5 2 2 0 6 7 11 8 6 7 9 10 12 13 16 17 16 19 21 21 23 25 26 29 30 32 32 33 34 34 32 30 29 29 29 28 25 22 18 15 14 14 13 12 15
14 11 9 7 5 4 2 4 6 10 15 15 11 7 9 10 13 14 15 16 14 18 21 21 20 21 23 24 26 28 30 31 33 34 32 31 28 28 27 25 22 18 15 13 12 12 12 15 20
9 6 5 10 8 7 7 5 1 3 6 12 12 10 9 12 12 16 14 13 15 17 18 20 20 20 21 23 23 23 25 26 28 30 29 27 27 26 24 21 18 15 13 11 11 11 14 20 19
12 5 17 14 8 9 9 8 6 4 5 9 9 11 11 13 13 14 17 14 13 17 17 19 19 20 20 20 21 23 24 24 24 25 26 26 24 22 21 17 13 12 9 8 10 12 18 21 20
16 13 13 13 27 18 13 15 12 11 9 10 16 14 14 15 16 17 15 17 16 13 15 17 19 21 21 19 20 21 22 22 19 20 20 19 18 16 14 12 11 10 7 6 10 15 22 19 20
30 12 18 28 27 18 20 19 19 14 15 11 13 18 17 17 18 19 20 18 17 15 16 17 18 20 21 23 20 21 21 20 17 16 18 17 17 16 14 13 12 10 7 5 10 20 23 20 19
31 23 18 27 28 17 15 17 16 9 12 11 14 16 19 20 17 19 21 22 20 19 18 19 19 21 20 21 22 18 19 17 16 15 14 13 12 12 13 13 13 11 8 8 11 21 20 21 18
21 17 18 16 25 19 16 11 17 13 12 13 13 14 17 20 18 16 20 23 23 21 20 20 19 20 20 20 20 19 17 16 15 14 13 13 13 13 13 13 13 11 10 11 13 20 20 18 18
27 25 25 23 18 7 18 10 17 23 15 15 17 18 19 18 19 17 17 20 24 25 23 21 20 20 20 20 20 19 17 14 12 12 12 12 13 13 14 14 14 14 13 14 15 18 19 19 17
28 26 24 24 20 16 10 17 13 24 21 19 18 19 19 18 23 22 19 18 23 25 28 26 23 22 21 20 20 20 17 13 13 12 13 12 13 12 11 13 15 16 15 15 16 16 17 17 16
30 30 25 26 24 25 20 16 13 20 21 24 17 14 17 19 23 25 24 23 20 22 25 28 28 27 26 24 22 21 17 16 14 13 13 14 12 10 11 12 13 14 15 15 17 16 16 15 13
35 29 29 27 28 26 19 23 19 23 17 25 19 14 15 22 24 25 28 24 22 19 22 24 28 29 29 27 25 23 21 19 16 15 17 18 16 14 13 14 14 14 13 13 14 16 15 15 13
38 34 32 30 22 22 22 24 26 22 25 21 19 15 11 14 22 27 26 27 26 19 17 19 24 31 31 30 29 28 25 24 20 17 20 21 20 18 18 19 19 18 15 13 13 12 14 15 15
37 43 34 28 22 23 20 23 22 33 28 23 18 21 15 13 18 24 26 27 27 25 21 20 24 27 31 32 31 30 28 26 23 20 21 24 24 22 20 19 20 22 21 18 15 14 14 15 16
45 35 36 38 37 31 26 24 17 29 23 26 20 20 17 13 16 17 20 24 27 26 28 25 26 28 30 31 30 29 28 28 27 23 22 23 26 25 23 22 21 21 21 21 20 18 17 17 17
45 41 38 34 35 33 30 26 24 23 23 29 21 20 17 13 15 15 16 19 22 26 30 29 28 27 27 27 26 28 27 26 29 25 24 24 25 27 26 25 24 24 23 22 22 22 20 22 22
36 40 39 38 39 35 30 27 23 28 29 35 23 29 20 14 15 17 14 14 16 22 26 29 29 28 27 26 26 25 28 28 28 29 27 28 28 28 28 26 26 25 26 26 26 26 26 25 25
Wind_Direction
131 123 109 96 92 85 98 86 76 69 54 47 44 59 52 53 61 65 75 92 95 92 93 101 120 124 118 125 124 125 121 116 115 116 115 117 117 116 118 118 121 119 124 121 114 115 116 112 104
135 127 106 88 81 65 87 61 70 65 51 42 41 50 53 53 68 75 85 93 99 92 93 113 127 129 125 125 126 128 125 120 120 121 121 124 117 111 111 118 121 121 116 118 118 117 113 108 107
134 120 106 103 75 112 88 61 52 60 49 42 37 46 54 62 76 85 94 94 96 104 111 109 117 124 128 128 126 128 127 134 130 133 133 129 119 114 112 116 121 120 115 116 116 116 114 108 103
135 122 117 117 95 150 94 68 51 54 46 40 36 49 58 77 87 93 100 97 93 105 110 107 114 122 130 133 134 133 134 132 132 133 129 128 119 114 112 112 112 111 113 118 117 119 119 109 107
130 124 106 102 129 112 83 76 58 58 52 48 35 53 60 81 93 100 105 99 98 105 112 115 118 126 127 128 129 130 133 133 137 139 136 134 123 117 111 106 104 109 112 116 118 118 116 112 116
133 131 138 142 131 121 94 74 63 57 47 45 46 55 65 89 96 103 106 102 99 105 111 117 123 126 127 126 129 131 133 136 133 137 138 135 128 124 110 107 110 115 115 118 119 117 119 120 112
145 130 156 139 155 141 100 73 56 53 53 47 54 55 72 95 98 104 105 98 93 96 105 113 119 126 128 130 133 132 135 133 130 135 138 133 129 128 114 112 109 115 127 120 122 121 120 114 103
147 132 164 156 170 159 138 105 76 55 47 44 56 66 75 99 103 108 105 94 87 97 111 116 121 129 131 131 131 134 133 132 130 131 134 127 123 125 121 120 116 115 125 125 122 121 113 105 99
161 160 153 198 169 172 141 121 81 69 61 56 56 72 83 103 108 114 104 93 87 97 108 115 117 119 121 128 128 127 129 127 123 124 124 125 124 125 127 128 123 122 123 120 118 111 104 98 94
185 181 188 187 182 175 143 111 64 69 66 61 61 78 92 106 115 117 107 99 93 95 104 104 108 116 121 123 127 126 127 128 125 121 122 124 130 132 134 129 126 121 120 117 110 105 98 94 88
180 178 186 194 177 177 172 158 44 71 62 65 79 74 105 114 124 121 114 110 105 101 101 102 107 112 113 115 121 124 129 134 137 130 128 131 132 132 129 126 124 121 116 108 105 104 100 97 89
194 182 175 203 186 186 32 191 206 167 44 57 88 102 115 131 130 127 119 119 117 111 109 107 106 110 110 110 118 123 118 119 126 129 131 131 127 126 125 123 123 119 114 114 112 111 106 102 96
203 199 219 208 200 221 295 248 197 239 225 177 157 133 135 149 144 131 128 128 126 122 120 114 111 115 114 115 116 117 119 119 124 132 133 132 130 128 126 125 123 120 120 118 118 114 111 106 104
205 222 208 217 169 168 298 254 247 252 229 208 187 164 146 157 159 144 136 135 133 134 131 129 122 124 123 122 122 121 122 122 123 125 128 130 129 128 128 127 127 126 126 124 119 112 116 115 114
207 211 206 208 240 249 230 293 269 249 231 214 190 174 163 165 171 165 149 142 140 143 140 131 130 133 134 130 130 130 128 131 132 133 135 135 135 133 133 135 137 136 132 127 117 119 122 125 125
203 212 267 266 246 231 224 223 211 305 257 233 192 179 179 174 183 178 163 155 147 151 153 146 137 137 136 135 135 131 130 134 137 137 137 137 140 141 142 145 146 144 139 130 126 128 130 135 132
220 250 232 251 243 233 216 223 222 269 281 228 212 197 187 184 189 198 198 187 170 163 166 159 156 153 146 145 140 141 138 138 139 141 142 143 146 149 152 155 152 146 145 143 131 131 141 142 135
268 266 250 255 245 236 219 246 237 261 269 243 224 220 198 198 188 199 199 186 183 178 176 180 173 175 170 161 150 149 147 145 146 149 148 150 154 159 161 164 163 163 162 155 138 143 148 147 131
223 213 236 257 256 235 244 252 256 252 238 239 235 227 216 212 196 199 205 200 193 185 180 179 176 171 172 175 162 161 162 164 164 166 169 172 173 179 183 183 179 184 181 165 161 158 157 154 141
219 212 219 247 264 235 246 251 258 234 228 251 238 226 227 220 211 200 206 209 204 195 188 185 181 175 170 172 176 177 174 176 178 180 180 188 195 201 203 203 202 196 192 175 175 166 162 158 152
215 222 221 231 256 242 245 258 268 242 236 235 238 238 232 231 221 215 208 213 211 210 200 195 192 190 186 187 187 190 196 192 193 196 193 201 204 206 211 211 210 202 196 182 177 175 171 171 165
215 226 202 231 245 231 255 242 237 264 237 243 240 237 244 241 231 223 217 216 217 215 209 203 199 201 204 199 207 202 203 201 208 220 216 212 211 197 195 199 198 196 191 186 176 180 183 183 182
217 209 229 237 234 226 275 232 293 275 239 239 243 243 241 235 226 225 220 212 217 220 221 212 213 208 209 212 211 212 208 215 221 229 235 214 199 192 194 195 194 189 189 190 183 189 197 197 193
216 201 228 226 233 234 221 227 243 278 270 246 239 234 234 225 217 220 223 221 220 220 224 224 219 219 219 221 219 222 212 212 235 234 215 200 198 194 194 192 192 193 195 196 200 197 206 207 209
214 214 218 232 228 230 222 231 215 230 224 248 238 239 227 228 229 226 224 232 232 222 221 226 228 225 225 224 229 226 228 226 223 231 224 204 197 198 206 201 197 196 200 207 211 212 212 217 221
220 211 216 227 229 232 224 225 224 242 230 239 250 243 235 235 236 237 229 227 235 235 229 235 230 229 232 230 228 230 228 232 227 220 222 214 208 207 208 204 205 206 207 215 222 230 228 229 236
216 220 215 219 230 225 233 235 243 232 240 241 240 250 242 254 240 236 237 236 233 224 232 231 230 231 230 232 233 233 233 236 234 225 216 218 217 212 218 218 214 212 213 216 222 231 237 241 245
208 225 219 212 219 224 225 231 230 249 241 239 236 241 247 245 228 233 238 240 238 227 228 232 238 226 227 230 230 235 236 236 236 232 227 220 223 221 220 224 226 225 221 223 225 231 240 243 246
214 207 220 222 222 220 223 224 232 220 232 241 225 235 231 235 230 238 241 242 236 232 230 233 239 237 228 231 231 233 238 240 241 236 239 238 233 232 228 231 233 234 236 235 238 241 243 246 250
210 220 213 219 218 220 218 224 224 247 242 239 232 232 227 227 227 230 231 237 235 234 233 235 236 241 233 231 230 229 234 239 244 246 244 245 244 243 241 237 239 242 243 246 249 251 253 253 253